Location: Chippewa Lake
(41.0698°N, 81.9010°W)
Time: 17:52:37
(UTC+00:00)

Spot 2 Rocket - Pass Details

Date: 28 September 2021
Orbit: 757 x 771 km, 98.5° (Epoch: 17 October)

Event Time Altitude Azimuth Distance (km) Brightness Sun altitude
Exits shadow 01:43:10 12° 24° (NNE) 2,185 5.8 -27.9°
Drops below altitude 10° 01:43:36 10° 20° (NNE) 2,296 6.0 -28.0°
Sets 01:46:31 0° 3° (N) 3,227 7.0 -28.5°
